Regional Weather Roundup
Issued by NWS

Home | Current Version | Previous Version | Graphics & Text | Print | Product List | Glossary On
Versions: 1 2 3 4 5 6 7 8 9 10 11 12 13 14 15 16 17 18 19 20 21 22 23 24 25 26 27
392
ASUS45 KCYS 211310
RWRWY

WYOMING REGIONAL WEATHER ROUNDUP
NATIONAL WEATHER SERVICE CHEYENNE WY
700 AM MDT THU MAY 21 2015

NOTE:  "FAIR" INDICATES FEW OR NO CLOUDS BELOW 12,000 FEET
WITH NO SIGNIFICANT WEATHER AND/OR OBSTRUCTIONS TO VISIBILITY.

WYZ001-211400-
YELLOWSTONE NATIONAL PARK

CITY           SKY/WX    TMP DP  RH WIND       PRES   REMARKS
LK YELLOWSTONE   N/A     37  33  85 CALM      30.18S
W YELLOWSTONE  NOT AVBL

$$
WYZ002>013-054>058-071-098>099-211400-
NORTHERN WYOMING

CITY           SKY/WX    TMP DP  RH WIND       PRES   REMARKS
JACKSON        CLOUDY    43  41  93 CALM      30.14S
CODY           PTSUNNY   41  39  93 CALM      30.13R
GREYBULL       FAIR      41  37  86 VRB5      30.15R
WORLAND        FAIR      43  35  73 SE9       30.14S
SHERIDAN       FAIR      40  35  83 CALM      30.16R
BUFFALO        FAIR      40  36  86 S14       30.16S WCI  32
GILLETTE       FAIR      38  34  85 S9        30.21S WCI  31
HULETT         FAIR      39  32  75 W5        30.25S
NEWCASTLE      FAIR      36  34  93 CALM      30.26S

$$
WYZ014>020-022>026-101>103-211400-
CENTRAL WYOMING

CITY           SKY/WX    TMP DP  RH WIND       PRES   REMARKS
BIG PINEY      CLOUDY    39  35  86 SE5       30.17F
PINEDALE       CLOUDY    39  36  87 N5        30.18F
DUBOIS         CLOUDY    36  34  93 CALM      30.16S
LANDER         FAIR      37  35  92 W5        30.16S WCI  33
RIVERTON       FAIR      38  35  89 CALM      30.17F
CASPER         CLOUDY    38  34  85 E7        30.20S WCI  33
DOUGLAS        CLOUDY    39  35  86 SE15      30.22R WCI  31

$$
WYZ021-027>030-104>119-211400-
SOUTHERN WYOMING

CITY           SKY/WX    TMP DP  RH WIND       PRES   REMARKS
EVANSTON       MOCLDY    39  38  96 E12       30.12S WCI  32
KEMMERER       CLOUDY    37  36  93 E10G16    30.16R WCI  30
FORT BRIDGER   FOG       39  39 100 E5        30.17S VSB 0
ROCK SPRINGS   FAIR      38  35  89 NE5       30.16R WCI  34
DIXON          FAIR      38  36  90 SE6       30.20R WCI  34
RAWLINS        CLOUDY    38  35  89 NE6       30.20S WCI  33
SARATOGA       PTSUNNY   36  36 100 NW5       30.21R FOG     WCI  32
LARAMIE        PTSUNNY   34  32  93 MISG      30.18S
CHEYENNE       FOG       36  36 100 S10       30.22S VSB<1/4 WCI  28
TORRINGTON     CLOUDY    41  36  82 E6        30.24S
PINE BLUFFS    CLOUDY    37  34  87 S10       30.26R WCI  30

$$



USA.gov is the U.S. government's official web portal to all federal, state and local government web resources and services.